Regional Weather Roundup
Issued by NWS

Home | Current Version | Previous Version | Text Only | Print | Product List | Glossary On
Versions: 1 2 3 4 5 6 7 8 9 10 11 12 13 14 15 16 17 18 19 20 21 22 23 24 25 26 27 28 29 30 31 32 33 34 35 36 37 38 39 40 41 42 43 44 45 46 47 48 49 50
000
ASUS42 KFFC 231110
RWRGA
WEATHER ROUNDUP FOR GEORGIA
NATIONAL WEATHER SERVICE PEACHTREE CITY GA
700 AM EDT FRI JUN 23 2017

NOTE: "FAIR" INDICATES FEW OR NO CLOUDS BELOW 12,000 FEET WITH NO
SIGNIFICANT WEATHER AND/OR OBSTRUCTIONS TO VISIBILITY.

* = USE WITH CAUTION. THE STATIONS MARKED WITH AN ASTERISK MAY NOT
REPORT WEATHER SUCH AS PRECIPITATION, FOG, OR THUNDER AND ARE NOT
QUALITY CONTROLLED BY NWS.

THE REMARK "TC" DENOTES TEMPERATURE READING IN DEGREES CELSIUS.

GAZ001>058-231200-
NORTH GEORGIA

CITY           SKY/WX    TMP DP  RH WIND       PRES   REMARKS
ATLANTA        MOCLDY    72  71  97 S7        30.02S
ATHENS           N/A    N/A N/A N/A MISG      30.03R
CHAMBLEE       MOCLDY    72  70  93 S5        30.02S
PEACHTREE CITY CLEAR     70  70 100 SE3       30.03R FOG
ROME           CLOUDY    74  73  97 CALM      29.98R
WEST ATLANTA   CLOUDY    73  73 100 S3        30.01S
GAINESVILLE    CLEAR     72  71  97 SW6       30.06R
CARTERSVILLE   MOCLDY    73  72  96 VRB3      30.00R


CITY           SKY/WX    TMP DP  RH WIND       PRES   REMARKS
DALTON*        CLOUDY    72  72 100 SE7       29.98S
LAWRENCEVILLE* PTCLDY    72  70  94 SW5       30.04  FOG
MARIETTA       MOCLDY    73  71  93 S5        30.01S
KENNESAW*      PTCLDY    73  72  94 S5        30.04
CANTON*        MOCLDY    72  72 100 CALM      30.04S
$$

GAZ059>098-102>109-231200-
CENTRAL GEORGIA

CITY           SKY/WX    TMP DP  RH WIND       PRES   REMARKS
AUGUSTA-BUSH   CLOUDY    78  75  90 SW3       30.02S
AUGUSTA-DANIEL MOCLDY    77  72  84 S5        30.04S
COLUMBUS       MOCLDY    74  72  93 S3        30.00R
MACON          MOCLDY    72  71  97 CALM      30.03R FOG
ROBINS AFB     FOG       72  72 100 SE5       30.02R VSB 3/4


CITY           SKY/WX    TMP DP  RH WIND       PRES   REMARKS
LAGRANGE*      PTCLDY    73  72  98 CALM      30.01R FOG
SYLVANIA*      CLOUDY    76  76 100 CALM      30.05R FOG
MILLEDGEVILLE* MOCLDY    72  72 100 CALM      30.03R FOG
$$

GAZ099>101-110>166-231200-
SOUTH GEORGIA

CITY           SKY/WX    TMP DP  RH WIND       PRES   REMARKS
SAVANNAH       CLOUDY    78  74  87 S7        30.04S
VALDOSTA       PTCLDY    72  72 100 CALM      30.03R
ALMA           PTCLDY    75  73  93 CALM      30.03S
ST SIMONS      CLEAR     79  74  84 S8        30.04R
FT STEWART     PTCLDY    75  73  93 CALM      30.02R
ALBANY         CLOUDY    76  76 100 CALM      30.04R FOG
HUNTER AFB     PTCLDY    78  75  91 CALM      30.02R
MOODY AFB      PTCLDY    74  73  97 CALM      30.02R
BRUNSWICK      CLEAR     79  75  89 S5        30.05R


CITY           SKY/WX    TMP DP  RH WIND       PRES   REMARKS
BAINBRIDGE*    CLEAR     82  81  94 S6        30.01S HX  95
MOULTRIE*      FOG       75  73  94 CALM      30.04R VSB 1/2
VIDALIA*       FOG       75  73  94 CALM      30.04S VSB 1/4
DOUGLAS*       CLEAR     73  72  94 CALM      30.05S FOG
$$



USA.gov is the U.S. government's official web portal to all federal, state and local government web resources and services.